Weather History for KTCC - November, 2011

Change the Weather History Date:

Friday, November 4, 2011

  Actual Average Record
Temperature  
Mean Temperature 52 °F -  
Max Temperature 68 °F 64 °F 85 °F (1909)
Min Temperature 37 °F 34 °F 17 °F (1991)
Degree Days  
Heating Degree Days 12    
Growing Degree Days 2 (Base 50)    
Moisture  
Dew Point 21 °F    
Average Humidity 31    
Maximum Humidity 43    
Minimum Humidity 18    
Precipitation  
Precipitation 0.00 in - - ()
Sea Level Pressure  
Sea Level Pressure 29.94 in    
Wind  
Wind Speed 13 mph (SSW)    
Max Wind Speed 20 mph    
Max Gust Speed 25 mph    
Visibility 10 miles    
Events      
Averages and records for this station are not official NWS values.
T = Trace of Precipitation, MM = Missing Value Source: NWS Daily Summary

Daily Weather History Graph

Daily Weather History Graph

Search for Another Location

Airport or City:

Trip Planner

Search our weather history database for the weather conditions in past years. The results will help you decide how hot, cold, wet, or windy it might be!

Date:

Astronomy

Nov. 04, 2011 Rise Set
Actual Time 7:18 AM MDT 5:57 PM MDT
Civil Twilight 6:51 AM MDT 6:23 PM MDT
Nautical Twilight 6:21 AM MDT 6:53 PM MDT
Astronomical Twilight 5:52 AM MDT 7:23 PM MDT
Moon 2:39 PM MDT 1:44 AM MDT
Length of Visible Light 11h 31m
Length of Day
10h 38m
Waxing Gibbous, 70% of the Moon is Illuminated
Nov 4
Waxing Gibbous
Nov 10
Full
Nov 18
Last Quarter
Nov 24
New
Dec 2
First Quarter

Hourly Weather History & Observations

Time (MDT) Temp. Windchill Dew Point Humidity Pressure Visibility Wind Dir Wind Speed Gust Speed Precip Events Conditions
12:53 AM 43.0 °F 36.0 °F 18.0 °F 37% 30.09 in 10.0 mi SW 13.8 mph 18.4 mph N/A   Clear
1:53 AM 41.0 °F 34.7 °F 18.0 °F 40% 30.07 in 10.0 mi SW 10.4 mph - N/A   Clear
2:53 AM 41.0 °F 33.5 °F 18.0 °F 40% 30.05 in 10.0 mi SSW 13.8 mph - N/A   Clear
3:53 AM 39.9 °F 32.5 °F 18.0 °F 41% 30.04 in 10.0 mi SSW 12.7 mph - N/A   Clear
4:53 AM 39.9 °F 32.9 °F 18.0 °F 41% 30.02 in 10.0 mi South 11.5 mph - N/A   Clear
5:53 AM 39.9 °F 32.9 °F 17.1 °F 40% 30.04 in 10.0 mi SSW 11.5 mph - N/A   Clear
6:53 AM 37.9 °F 31.5 °F 17.1 °F 43% 30.04 in 10.0 mi SSE 9.2 mph - N/A   Clear
7:53 AM 39.9 °F 35.8 °F 18.0 °F 41% 30.06 in 10.0 mi SW 5.8 mph - N/A   Clear
8:53 AM 45.0 °F 37.4 °F 18.0 °F 34% 30.04 in 10.0 mi SSW 18.4 mph - N/A   Clear
9:53 AM 50.0 °F - 18.0 °F 28% 30.02 in 10.0 mi SSW 17.3 mph 23.0 mph N/A   Clear
10:53 AM 55.0 °F - 19.0 °F 24% 30.00 in 10.0 mi SW 19.6 mph - N/A   Clear
11:53 AM 57.9 °F - 19.9 °F 23% 29.97 in 10.0 mi SSW 15.0 mph - N/A   Clear
12:53 PM 62.1 °F - 21.0 °F 21% 29.92 in 10.0 mi SSW 12.7 mph 17.3 mph N/A   Clear
1:53 PM 64.9 °F - 21.0 °F 19% 29.88 in 10.0 mi SW 12.7 mph 20.7 mph N/A   Clear
2:53 PM 66.0 °F - 21.0 °F 18% 29.84 in 10.0 mi SSW 13.8 mph - N/A   Clear
3:53 PM 68.0 °F - 23.0 °F 18% 29.82 in 10.0 mi South 17.3 mph - N/A   Clear
4:53 PM 66.2 °F - 24.8 °F 21% 29.89 in 10.0 mi South 12.7 mph - N/A   Clear
5:53 PM 61.0 °F - 27.0 °F 27% 29.82 in 10.0 mi SSE 9.2 mph - N/A   Clear
6:53 PM 59.0 °F - 27.0 °F 29% 29.83 in 10.0 mi South 12.7 mph - N/A   Clear
7:53 PM 57.0 °F - 27.0 °F 32% 29.83 in 10.0 mi SSE 9.2 mph - N/A   Clear
8:53 PM 55.9 °F - 25.0 °F 30% 29.83 in 10.0 mi South 17.3 mph 25.3 mph N/A   Clear
9:53 PM 54.0 °F - 24.1 °F 31% 29.82 in 10.0 mi South 17.3 mph - N/A   Clear
10:53 PM 52.0 °F - 24.1 °F 34% 29.80 in 10.0 mi South 18.4 mph - N/A   Clear
11:53 PM 52.0 °F - 24.1 °F 34% 29.78 in 10.0 mi South 18.4 mph - N/A   Clear